Location: Balaclava NSW 2575, Australia
(34.4510°S, 150.4953°E)
Time: 07:00:39
(UTC+10:00)

Transit 4A - All Passes

Search period start: 14 June 2021 00:00
Search period end: 24 June 2021 00:00
Orbit: 871 x 973 km, 66.8° (Epoch: 13 June)

Date Brightness Start Highest point End Pass type
(mag) Time Alt. Az. Time Alt. Az. Time Alt. Az.
14 Jun - 00:50:16 10° SW 00:50:47 10° SW 00:51:20 10° SW night (unlit)
14 Jun - 06:19:25 10° SSE 06:22:33 14° SE 06:25:38 10° ESE visible
14 Jun - 08:03:29 10° SSW 08:09:58 79° ESE 08:16:16 10° NNE daylight
14 Jun - 09:52:26 10° WSW 09:55:29 14° WNW 09:58:31 10° NW daylight
14 Jun - 21:21:16 10° NNE 21:26:22 29° ENE 21:31:36 10° SE night (unlit)
14 Jun - 23:06:46 10° NW 23:12:28 40° WSW 23:18:23 10° SSE night (unlit)
15 Jun - 06:27:42 10° S 06:32:16 20° SE 06:36:46 10° E visible
15 Jun - 08:12:50 10° SSW 08:19:14 71° WNW 08:25:29 10° NNE daylight
15 Jun - 21:29:45 10° N 21:35:28 45° ENE 21:41:23 10° SE night (unlit)
15 Jun - 23:16:51 10° WNW 23:22:00 27° SW 23:27:18 10° S night (unlit)
16 Jun - 06:36:26 10° S 06:41:53 28° SE 06:47:16 10° ENE visible
16 Jun - 08:22:21 10° SW 08:28:26 46° WNW 08:34:23 10° N daylight
16 Jun - 21:38:38 10° NNW 21:44:40 70° ENE 21:50:55 10° SSE night (unlit)
16 Jun - 23:27:21 10° W 23:31:38 19° SW 23:36:00 10° S night (unlit)
17 Jun - 06:45:22 10° SSW 06:51:25 41° ESE 06:57:20 10° NE daylight
17 Jun - 08:32:08 10° SW 08:37:34 30° WNW 08:42:54 10° NNW daylight
17 Jun - 20:05:46 10° NE 20:08:27 13° E 20:11:09 10° ESE night (unlit)
17 Jun - 21:47:51 10° NNW 21:53:56 78° WSW 22:00:16 10° SSE night (unlit)
17 Jun - 23:38:32 10° WSW 23:41:22 13° SW 23:44:14 10° SSW night (unlit)
18 Jun - 05:11:47 10° SSE 05:13:07 11° SE 05:14:27 10° SE visible
18 Jun - 06:54:27 10° SSW 07:00:50 61° ESE 07:07:04 10° NE daylight
18 Jun - 08:42:19 10° WSW 08:46:36 19° WNW 08:50:51 10° NNW daylight
18 Jun - 20:12:59 10° NNE 20:17:26 22° ENE 20:22:00 10° ESE night (unlit)
18 Jun - 21:57:22 10° NW 22:03:18 52° WSW 22:09:27 10° SSE night (unlit)
19 Jun - 05:19:12 10° S 05:22:56 16° SE 05:26:37 10° E visible
19 Jun - 07:03:42 10° SSW 07:10:11 90° ESE 07:16:29 10° NNE daylight
19 Jun - 08:53:44 10° W 08:55:35 11° W 08:57:26 10° WNW daylight
19 Jun - 20:21:08 10° N 20:26:30 34° ENE 20:32:02 10° SE night (unlit)
19 Jun - 22:07:13 10° WNW 22:12:46 35° SW 22:18:30 10° S night (unlit)
20 Jun - 05:27:42 10° S 05:32:37 22° SE 05:37:28 10° E visible
20 Jun - 07:13:07 10° SW 07:19:25 61° WNW 07:25:36 10° N daylight
20 Jun - 20:29:46 10° N 20:35:38 53° ENE 20:41:43 10° SE night (unlit)
20 Jun - 22:17:25 10° WNW 22:22:20 24° SW 22:27:21 10° S night (unlit)
21 Jun - 05:36:30 10° S 05:42:12 32° SE 05:47:48 10° ENE visible
21 Jun - 07:22:43 10° SW 07:28:36 39° WNW 07:34:22 10° N daylight
21 Jun - 20:38:46 10° NNW 20:44:52 81° ENE 20:51:11 10° SSE night (unlit)
21 Jun - 22:28:07 10° W 22:31:59 17° SW 22:35:56 10° S night (unlit)
22 Jun - 05:45:30 10° SSW 05:51:41 47° ESE 05:57:45 10° NE visible
22 Jun - 07:32:37 10° SW 07:37:42 25° WNW 07:42:42 10° NNW daylight
22 Jun - 19:05:02 10° NE 19:08:32 16° ENE 19:12:07 10° ESE visible
22 Jun - 20:48:06 10° NW 20:54:09 68° WSW 21:00:28 10° SSE visible
22 Jun - 22:39:45 10° WSW 22:41:46 11° SW 22:43:47 10° SSW night (unlit)
23 Jun - 04:11:02 10° SSE 04:13:32 12° SE 04:16:01 10° ESE visible
23 Jun - 05:54:39 10° SSW 06:01:05 70° ESE 06:07:22 10° NE visible
23 Jun - 07:43:03 10° WSW 07:46:43 16° WNW 07:50:21 10° NW daylight
23 Jun - 19:12:42 10° NNE 19:17:34 25° ENE 19:22:33 10° SE visible
23 Jun - 20:57:43 10° NW 21:03:34 45° WSW 21:09:36 10° SSE visible
